This demonstration page uses our WeatherBlox Daily Observations layout. Learn more.

Left ArrowRight Arrow

Hourly Observations for July 8, 2018

Temp ( °F °C ) Dew Point ( °F °C ) Humidity (%) Winds ( mph kmh ) Pressure ( in mb ) Visibility ( mi km ) Precip ( " mm )
12:17 am 00:17 Clear 59 15 57 14 94 94 N N/A 30.24 1024 10 16.0934 N/A
12:36 am 00:36 Clear 57 14 57 14 100 100 ENE 5 7 30.24 1024 10 16.0934 N/A
12:56 am 00:56 Clear 57 14 57 14 100 100 ENE 5 7 30.24 1024 10 16.0934 N/A
1:17 am 01:17 Clear 57 14 57 14 100 100 E 3 6 30.24 1024 10 16.0934 N/A
1:36 am 01:36 Clear 57 14 57 14 100 100 E 5 7 30.24 1024 10 16.0934 N/A
1:56 am 01:56 Clear 57 14 57 14 100 100 E 3 6 30.24 1024 10 16.0934 N/A
2:17 am 02:17 Clear 57 14 57 14 100 100 N N/A 30.24 1024 10 16.0934 N/A
2:36 am 02:36 Clear 55 13 55 13 100 100 N N/A 30.27 1025 10 16.0934 N/A
2:56 am 02:56 Clear 55 13 55 13 100 100 N N/A 30.27 1025 10 16.0934 N/A
3:17 am 03:17 Clear 55 13 55 13 100 100 N N/A 30.27 1025 10 16.0934 N/A
3:36 am 03:36 Clear 54 12 54 12 100 100 N N/A 30.27 1025 10 16.0934 N/A
3:56 am 03:56 Clear 55 13 55 13 100 100 N N/A 30.27 1025 10 16.0934 N/A
4:17 am 04:17 Clear 54 12 54 12 100 100 N N/A 30.27 1025 10 16.0934 N/A
4:36 am 04:36 Clear 55 13 55 13 100 100 N N/A 30.27 1025 10 16.0934 N/A
4:56 am 04:56 Clear 57 14 55 13 94 94 N N/A 30.24 1024 10 16.0934 N/A
5:17 am 05:17 Clear 55 13 55 13 100 100 N N/A 30.27 1025 10 16.0934 N/A
5:36 am 05:36 Clear 54 12 54 12 100 100 N N/A 30.27 1025 10 16.0934 N/A
5:57 am 05:57 Clear 54 12 54 12 100 100 N N/A 30.27 1025 10 16.0934 N/A
6:17 am 06:17 Clear 54 12 54 12 100 100 N N/A 30.27 1025 10 16.0934 N/A
6:36 am 06:36 Sunny 54 12 54 12 100 100 NNE 5 7 30.27 1025 10 16.0934 N/A
6:57 am 06:57 Sunny 54 12 54 12 100 100 N N/A 30.3 1026 10 16.0934 N/A
7:17 am 07:17 Sunny 54 12 54 12 100 100 N N/A 30.3 1026 10 16.0934 N/A
7:36 am 07:36 Sunny 57 14 57 14 100 100 N N/A 30.3 1026 10 16.0934 N/A
7:57 am 07:57 Sunny 59 15 59 15 100 100 N N/A 30.27 1025 10 16.0934 N/A
8:16 am 08:16 Sunny 63 17 61 16 94 94 N N/A 30.27 1025 10 16.0934 N/A
8:37 am 08:37 Sunny 64 18 61 16 88 88 E 3 6 30.27 1025 10 16.0934 N/A
8:57 am 08:57 Sunny 66 19 63 17 88 88 E 5 7 30.27 1025 10 16.0934 N/A
9:17 am 09:17 Sunny 68 20 63 17 83 83 ESE 3 6 30.3 1026 10 16.0934 N/A
9:36 am 09:36 Sunny 70 21 64 18 83 83 E 3 6 30.3 1026 10 16.0934 N/A
9:56 am 09:56 Sunny 72 22 64 18 78 78 E 5 7 30.3 1026 10 16.0934 N/A
10:17 am 10:17 Sunny 73 23 64 18 74 74 ESE 5 7 30.3 1026 10 16.0934 N/A
10:36 am 10:36 Sunny 75 24 64 18 69 69 E 6 9 30.27 1025 10 16.0934 N/A
10:56 am 10:56 Sunny 75 24 64 18 69 69 SE 5 7 30.24 1024 10 16.0934 N/A
11:16 am 11:16 Sunny 77 25 66 19 69 69 N N/A 30.24 1024 10 16.0934 N/A
11:37 am 11:37 Sunny 79 26 66 19 65 65 N N/A 30.24 1024 10 16.0934 N/A
11:57 am 11:57 Sunny 79 26 66 19 65 65 ENE 5 7 30.24 1024 10 16.0934 N/A
12:16 pm 12:16 Sunny 79 26 68 20 70 70 E 6 9 30.24 1024 10 16.0934 N/A
12:37 pm 12:37 Sunny 79 26 66 19 65 65 N N/A 30.24 1024 10 16.0934 N/A
12:57 pm 12:57 Sunny 79 26 66 19 65 65 N N/A 30.24 1024 10 16.0934 N/A
1:16 pm 13:16 Sunny 81 27 68 20 66 66 E 6 9 30.24 1024 10 16.0934 N/A
1:37 pm 13:37 Sunny 81 27 70 21 70 70 ENE 5 7 30.21 1023 10 16.0934 N/A
1:57 pm 13:57 Sunny 82 28 68 20 62 62 E 7 11 30.21 1023 10 16.0934 N/A
2:16 pm 14:16 Sunny 82 28 70 21 66 66 NE 6 9 30.21 1023 10 16.0934 N/A
2:37 pm 14:37 Sunny 82 28 70 21 66 66 E 5 7 30.21 1023 10 16.0934 N/A
2:57 pm 14:57 Partly Cloudy 82 28 68 20 62 62 N N/A 30.21 1023 10 16.0934 N/A
3:16 pm 15:16 Partly Cloudy 82 28 70 21 66 66 N N/A 30.21 1023 10 16.0934 N/A
3:37 pm 15:37 Partly Cloudy 84 29 68 20 58 58 N N/A 30.21 1023 10 16.0934 N/A
3:56 pm 15:56 Partly Cloudy 84 29 70 21 62 62 SW 5 7 30.21 1023 10 16.0934 N/A
4:16 pm 16:16 Sunny 84 29 70 21 62 62 ESE 3 6 30.21 1023 10 16.0934 N/A
4:37 pm 16:37 Sunny 84 29 70 21 62 62 SE 3 6 30.21 1023 10 16.0934 N/A
4:56 pm 16:56 Partly Cloudy 82 28 70 21 66 66 E 3 6 30.18 1022 10 16.0934 N/A
5:17 pm 17:17 Partly Cloudy 82 28 70 21 66 66 SW 3 6 30.18 1022 10 16.0934 N/A
5:36 pm 17:36 Sunny 84 29 70 21 62 62 SE 3 6 30.18 1022 10 16.0934 N/A
5:56 pm 17:56 Sunny 84 29 70 21 62 62 N N/A 30.18 1022 10 16.0934 N/A
6:17 pm 18:17 Sunny 84 29 70 21 62 62 N N/A 30.18 1022 10 16.0934 N/A
6:36 pm 18:36 Sunny 84 29 72 22 66 66 ESE 6 9 30.18 1022 10 16.0934 N/A
6:56 pm 18:56 Sunny 84 29 72 22 66 66 SSE 5 7 30.18 1022 10 16.0934 N/A
7:17 pm 19:17 Sunny 82 28 72 22 70 70 SSE 3 6 30.18 1022 10 16.0934 N/A
7:36 pm 19:36 Sunny 82 28 72 22 70 70 SSE 3 6 30.18 1022 10 16.0934 N/A
7:57 pm 19:57 Sunny 82 28 72 22 70 70 SSE 5 7 30.18 1022 10 16.0934 N/A
8:17 pm 20:17 Sunny 81 27 72 22 74 74 SE 5 7 30.18 1022 10 16.0934 N/A
8:36 pm 20:36 Sunny 79 26 73 23 84 84 SE 3 6 30.18 1022 10 16.0934 N/A
8:57 pm 20:57 Sunny 77 25 72 22 83 83 SE 3 6 30.18 1022 10 16.0934 N/A
9:17 pm 21:17 Clear 75 24 72 22 89 89 SE 5 7 30.18 1022 10 16.0934 N/A
9:36 pm 21:36 Clear 75 24 72 22 89 89 SE 5 7 30.18 1022 10 16.0934 N/A
9:57 pm 21:57 Clear 73 23 70 21 89 89 SSE 5 7 30.18 1022 10 16.0934 N/A
10:16 pm 22:16 Clear 73 23 70 21 89 89 SSE 3 6 30.18 1022 10 16.0934 N/A
10:37 pm 22:37 Clear 73 23 70 21 89 89 SSE 3 6 30.18 1022 10 16.0934 N/A
10:57 pm 22:57 Clear 72 22 70 21 94 94 SSE 5 7 30.21 1023 10 16.0934 N/A
11:16 pm 23:16 Clear 72 22 70 21 94 94 SSE 6 9 30.21 1023 10 16.0934 N/A
11:37 pm 23:37 Clear 70 21 70 21 100 100 S 3 6 30.21 1023 10 16.0934 N/A
11:56 pm 23:56 Clear 70 21 68 20 94 94 S 3 6 30.21 1023 10 16.0934 N/A

Powered by AerisWeather